When you browse on this site, cookies collect data to enhance your experience and personalize the content and advertising you see.
Visit our Privacy Policy to learn more. By continuing to use the site, you agree to this use of cookies and data.
  • In Schweiz
  • Länderverzeichnis
  • Für 7 Tage
  • Wassertemperatur
  • Wetterkarte
  • Widgets
  • user-avatar
    Anmelden

    Stündliche Wetter Shusha

    Heute, 27 Mai, Mittwoch

    Zeit Temperatur Niederschläge Wind Luftdruck Luftfeuchtigkeit
    00:00 +13°C° 0 mm 1 m/S 663 mmHg 72%
    01:00 +12°C° 0 mm 1 m/S 663 mmHg 73%
    02:00 +12°C° 0 mm 1 m/S 663 mmHg 73%
    03:00 +12°C° 0 mm 1 m/S 662 mmHg 74%
    04:00 +12°C° 0 mm 1 m/S 663 mmHg 72%
    05:00 +13°C° 0 mm 1 m/S 663 mmHg 71%
    06:00 +14°C° 0 mm 1 m/S 664 mmHg 69%
    07:00 +15°C° 0 mm 1 m/S 664 mmHg 64%
    08:00 +17°C° 0 mm 2 m/S 665 mmHg 60%
    09:00 +18°C° 0 mm 2 m/S 665 mmHg 55%
    10:00 +19°C° 0 mm 2 m/S 665 mmHg 54%
    11:00 +20°C° 0 mm 2 m/S 665 mmHg 53%
    12:00 +21°C° 0 mm 2 m/S 665 mmHg 52%
    13:00 +21°C° 0 mm 2 m/S 664 mmHg 52%
    14:00 +21°C° 0 mm 2 m/S 664 mmHg 52%
    15:00 +23°C° 0 mm 2 m/S 664 mmHg 52%
    16:00 +21°C° 0 mm 2 m/S 663 mmHg 56%
    17:00 +21°C° 0 mm 1 m/S 663 mmHg 60%
    18:00 +21°C° 0 mm 1 m/S 663 mmHg 64%
    19:00 +19°C° 0 mm 1 m/S 663 mmHg 68%
    20:00 +16°C° 0 mm 1 m/S 662 mmHg 71%
    21:00 +15°C° 0 mm 1 m/S 662 mmHg 75%
    22:00 +14°C° 0 mm 1 m/S 662 mmHg 74%
    23:00 +14°C° 0 mm 1 m/S 662 mmHg 74%

    Morgen, 28 Mai, Donnerstag

    Zeit Temperatur Niederschläge Wind Luftdruck Luftfeuchtigkeit
    00:00 +14°C° 0 mm 1 m/S 661 mmHg 74%
    01:00 +14°C° 0 mm 1 m/S 661 mmHg 73%
    02:00 +14°C° 0 mm 1 m/S 661 mmHg 73%
    03:00 +14°C° 0 mm 1 m/S 661 mmHg 72%
    04:00 +15°C° 0 mm 1 m/S 661 mmHg 71%
    05:00 +16°C° 0 mm 1 m/S 661 mmHg 70%
    06:00 +16°C° 0 mm 0 m/S 662 mmHg 68%
    07:00 +19°C° 0 mm 1 m/S 662 mmHg 64%
    08:00 +21°C° 0 mm 1 m/S 662 mmHg 60%
    09:00 +21°C° 0 mm 2 m/S 662 mmHg 56%
    10:00 +23°C° 0 mm 2 m/S 662 mmHg 54%
    11:00 +24°C° 0 mm 2 m/S 662 mmHg 53%
    12:00 +25°C° 0 mm 2 m/S 662 mmHg 51%
    13:00 +25°C° 0 mm 2 m/S 662 mmHg 50%
    14:00 +26°C° 0 mm 2 m/S 661 mmHg 50%
    15:00 +26°C° 0 mm 2 m/S 661 mmHg 50%
    16:00 +25°C° 0 mm 2 m/S 661 mmHg 54%
    17:00 +24°C° 0 mm 1 m/S 660 mmHg 59%
    18:00 +23°C° 0 mm 1 m/S 660 mmHg 64%
    19:00 +22°C° 0 mm 1 m/S 660 mmHg 65%
    20:00 +20°C° 0 mm 1 m/S 660 mmHg 67%
    21:00 +19°C° 0 mm 1 m/S 660 mmHg 69%
    22:00 +18°C° 0 mm 1 m/S 659 mmHg 68%
    23:00 +17°C° 0 mm 2 m/S 659 mmHg 68%

    übermorgen, 29 Mai, Freitag

    Zeit Temperatur Niederschläge Wind Luftdruck Luftfeuchtigkeit
    00:00 +17°C° 0 mm 2 m/S 659 mmHg 67%
    01:00 +16°C° 0 mm 2 m/S 658 mmHg 65%
    02:00 +16°C° 0 mm 1 m/S 658 mmHg 63%
    03:00 +16°C° 0 mm 1 m/S 658 mmHg 61%
    04:00 +18°C° 0 mm 1 m/S 658 mmHg 61%
    05:00 +19°C° 0 mm 1 m/S 658 mmHg 62%
    06:00 +18°C° 0 mm 0 m/S 658 mmHg 62%
    07:00 +21°C° 0 mm 1 m/S 658 mmHg 59%
    08:00 +22°C° 0 mm 1 m/S 658 mmHg 56%
    09:00 +24°C° 0 mm 2 m/S 658 mmHg 52%
    10:00 +25°C° 0 mm 2 m/S 658 mmHg 51%
    11:00 +26°C° 0 mm 2 m/S 658 mmHg 49%
    12:00 +27°C° 0 mm 2 m/S 658 mmHg 47%
    13:00 +27°C° 0 mm 2 m/S 657 mmHg 47%
    14:00 +27°C° 0 mm 2 m/S 657 mmHg 47%
    15:00 +27°C° 0 mm 3 m/S 656 mmHg 47%
    16:00 +26°C° 0 mm 2 m/S 656 mmHg 52%
    17:00 +25°C° 0 mm 2 m/S 656 mmHg 57%
    18:00 +25°C° 0 mm 1 m/S 656 mmHg 62%
    19:00 +23°C° 0 mm 1 m/S 655 mmHg 63%
    20:00 +20°C° 0 mm 2 m/S 655 mmHg 64%
    21:00 +18°C° 0 mm 2 m/S 655 mmHg 65%
    22:00 +18°C° 0 mm 2 m/S 655 mmHg 57%
    23:00 +18°C° 0 mm 3 m/S 655 mmHg 49%

    30 Mai, Samstag

    Zeit Temperatur Niederschläge Wind Luftdruck Luftfeuchtigkeit
    00:00 +18°C° 0 mm 3 m/S 655 mmHg 41%
    01:00 +17°C° 0 mm 3 m/S 655 mmHg 39%
    02:00 +17°C° 0 mm 2 m/S 655 mmHg 38%
    03:00 +16°C° 0 mm 2 m/S 655 mmHg 37%
    04:00 +17°C° 0 mm 2 m/S 655 mmHg 42%
    05:00 +17°C° 0 mm 2 m/S 656 mmHg 47%
    06:00 +18°C° 0 mm 2 m/S 657 mmHg 53%
    07:00 +19°C° 0 mm 2 m/S 657 mmHg 50%
    08:00 +21°C° 0 mm 2 m/S 658 mmHg 48%
    09:00 +24°C° 0 mm 2 m/S 658 mmHg 45%
    10:00 +24°C° 0 mm 2 m/S 659 mmHg 43%
    11:00 +25°C° 0 mm 3 m/S 659 mmHg 41%
    12:00 +26°C° 0 mm 3 m/S 659 mmHg 39%
    13:00 +26°C° 0 mm 3 m/S 659 mmHg 40%
    14:00 +26°C° 0 mm 3 m/S 659 mmHg 40%
    15:00 +26°C° 0 mm 3 m/S 659 mmHg 41%
    16:00 +25°C° 0 mm 3 m/S 659 mmHg 46%
    17:00 +24°C° 0 mm 2 m/S 658 mmHg 51%
    18:00 +23°C° 0 mm 1 m/S 658 mmHg 56%
    19:00 +21°C° 0 mm 1 m/S 658 mmHg 59%
    20:00 +20°C° 0 mm 1 m/S 658 mmHg 62%
    21:00 +18°C° 0 mm 1 m/S 658 mmHg 66%
    22:00 +16°C° 0 mm 1 m/S 659 mmHg 67%
    23:00 +16°C° 0 mm 1 m/S 659 mmHg 69%

    31 Mai, Sonntag

    Zeit Temperatur Niederschläge Wind Luftdruck Luftfeuchtigkeit
    00:00 +15°C° 0 mm 1 m/S 659 mmHg 70%
    01:00 +15°C° 0 mm 1 m/S 659 mmHg 71%
    02:00 +14°C° 0 mm 1 m/S 659 mmHg 73%
    03:00 +14°C° 0 mm 1 m/S 659 mmHg 74%
    04:00 +13°C° 0 mm 0 m/S 659 mmHg 73%
    05:00 +14°C° 0 mm 0 m/S 660 mmHg 71%
    06:00 +15°C° 0 mm 0 m/S 660 mmHg 70%
    07:00 +18°C° 0 mm 1 m/S 661 mmHg 66%
    08:00 +19°C° 0 mm 1 m/S 661 mmHg 63%
    09:00 +20°C° 0 mm 2 m/S 661 mmHg 59%
    10:00 +20°C° 0 mm 2 m/S 661 mmHg 58%
    11:00 +21°C° 0 mm 3 m/S 661 mmHg 57%
    12:00 +22°C° 0 mm 3 m/S 661 mmHg 56%
    13:00 +22°C° 0 mm 3 m/S 661 mmHg 57%
    14:00 +22°C° 0 mm 3 m/S 660 mmHg 57%
    15:00 +22°C° 0 mm 3 m/S 660 mmHg 57%
    16:00 +21°C° 0 mm 3 m/S 660 mmHg 61%
    17:00 +20°C° 0 mm 2 m/S 659 mmHg 64%
    18:00 +19°C° 0 mm 2 m/S 659 mmHg 68%
    19:00 +17°C° 0 mm 2 m/S 659 mmHg 72%
    20:00 +16°C° 0 mm 1 m/S 659 mmHg 76%
    21:00 +14°C° 0 mm 1 m/S 659 mmHg 80%
    22:00 +14°C° 0 mm 1 m/S 659 mmHg 81%
    23:00 +14°C° 0 mm 1 m/S 659 mmHg 81%

    1 Juni, Montag

    Zeit Temperatur Niederschläge Wind Luftdruck Luftfeuchtigkeit
    00:00 +14°C° 0 mm 1 m/S 659 mmHg 82%
    01:00 +14°C° 0 mm 1 m/S 658 mmHg 82%
    02:00 +13°C° 0 mm 1 m/S 658 mmHg 81%
    03:00 +13°C° 0 mm 1 m/S 658 mmHg 81%
    04:00 +14°C° 0 mm 1 m/S 659 mmHg 79%
    05:00 +15°C° 0 mm 1 m/S 659 mmHg 77%
    06:00 +15°C° 0 mm 1 m/S 659 mmHg 75%
    07:00 +18°C° 0 mm 1 m/S 660 mmHg 71%
    08:00 +18°C° 0 mm 2 m/S 660 mmHg 66%
    09:00 +19°C° 0 mm 2 m/S 660 mmHg 62%
    10:00 +20°C° 0 mm 2 m/S 660 mmHg 60%
    11:00 +21°C° 0 mm 2 m/S 660 mmHg 58%
    12:00 +22°C° 0 mm 3 m/S 659 mmHg 56%
    13:00 +22°C° 0.1 mm 3 m/S 659 mmHg 55%
    14:00 +24°C° 0.1 mm 2 m/S 659 mmHg 54%
    15:00 +24°C° 0.1 mm 2 m/S 658 mmHg 52%
    16:00 +23°C° 0 mm 2 m/S 658 mmHg 56%
    17:00 +23°C° 0 mm 2 m/S 658 mmHg 59%
    18:00 +22°C° 0 mm 1 m/S 658 mmHg 62%
    19:00 +20°C° 0 mm 1 m/S 657 mmHg 66%
    20:00 +19°C° 0 mm 1 m/S 657 mmHg 70%
    21:00 +16°C° 0 mm 1 m/S 657 mmHg 74%
    22:00 +16°C° 0 mm 1 m/S 657 mmHg 72%
    23:00 +16°C° 0 mm 2 m/S 657 mmHg 71%
    Mehr zeigen